<?xml version="1.0" encoding="UTF-8" standalone="no" ?>
<gpx xmlns="http://www.topografix.com/GPX/1/1" xmlns:xsi="http://www.w3.org/2001/XMLSchema-instance" xsi:schemaLocation="http://www.topografix.com/GPX/1/1 http://www.topografix.com/GPX/1/1/gpx.xsd" version="1.1" creator="VisuGPX - https://www.visugpx.com">
  <metadata>
    <name>Marathon Toulouse 2024</name>
  </metadata>
  <trk>
    <name><![CDATA[Toulouse Métropole Run Expérience - 42.2km]]></name>
    <trkseg>
      <trkpt lat="43.60271" lon="1.45166">
        <ele>157</ele>
        <time>2024-11-01T09:50:42Z</time>
      </trkpt>
      <trkpt lat="43.60169" lon="1.45192">
        <ele>158</ele>
        <time>2024-11-01T09:50:42Z</time>
      </trkpt>
      <trkpt lat="43.60116" lon="1.45202">
        <ele>156</ele>
        <time>2024-11-01T09:50:42Z</time>
      </trkpt>
      <trkpt lat="43.60077" lon="1.45211">
        <ele>154</ele>
        <time>2024-11-01T09:50:42Z</time>
      </trkpt>
      <trkpt lat="43.60046" lon="1.4522">
        <ele>154</ele>
        <time>2024-11-01T09:50:42Z</time>
      </trkpt>
      <trkpt lat="43.60016" lon="1.45317">
        <ele>153</ele>
        <time>2024-11-01T09:50:42Z</time>
      </trkpt>
      <trkpt lat="43.60014" lon="1.45353">
        <ele>152</ele>
        <time>2024-11-01T09:50:42Z</time>
      </trkpt>
      <trkpt lat="43.60028" lon="1.45469">
        <ele>152</ele>
        <time>2024-11-01T09:50:42Z</time>
      </trkpt>
      <trkpt lat="43.60078" lon="1.45635">
        <ele>159</ele>
        <time>2024-11-01T09:50:42Z</time>
      </trkpt>
      <trkpt lat="43.60032" lon="1.45659">
        <ele>155</ele>
        <time>2024-11-01T09:50:42Z</time>
      </trkpt>
      <trkpt lat="43.5982" lon="1.45665">
        <ele>154</ele>
        <time>2024-11-01T09:50:42Z</time>
      </trkpt>
      <trkpt lat="43.59537" lon="1.45667">
        <ele>150</ele>
        <time>2024-11-01T09:50:42Z</time>
      </trkpt>
      <trkpt lat="43.59507" lon="1.45668">
        <ele>149</ele>
        <time>2024-11-01T09:50:42Z</time>
      </trkpt>
      <trkpt lat="43.59475" lon="1.45679">
        <ele>151</ele>
        <time>2024-11-01T09:50:42Z</time>
      </trkpt>
      <trkpt lat="43.59438" lon="1.45705">
        <ele>153</ele>
        <time>2024-11-01T09:50:42Z</time>
      </trkpt>
      <trkpt lat="43.59211" lon="1.45921">
        <ele>153</ele>
        <time>2024-11-01T09:50:42Z</time>
      </trkpt>
      <trkpt lat="43.59158" lon="1.45952">
        <ele>152</ele>
        <time>2024-11-01T09:50:42Z</time>
      </trkpt>
      <trkpt lat="43.59097" lon="1.46019">
        <ele>154</ele>
        <time>2024-11-01T09:50:42Z</time>
      </trkpt>
      <trkpt lat="43.5906" lon="1.46042">
        <ele>154</ele>
        <time>2024-11-01T09:50:42Z</time>
      </trkpt>
      <trkpt lat="43.59036" lon="1.46048">
        <ele>153</ele>
        <time>2024-11-01T09:50:42Z</time>
      </trkpt>
      <trkpt lat="43.58756" lon="1.46101">
        <ele>152</ele>
        <time>2024-11-01T09:50:42Z</time>
      </trkpt>
      <trkpt lat="43.58722" lon="1.46183">
        <ele>154</ele>
        <time>2024-11-01T09:50:42Z</time>
      </trkpt>
      <trkpt lat="43.58685" lon="1.46267">
        <ele>153</ele>
        <time>2024-11-01T09:50:42Z</time>
      </trkpt>
      <trkpt lat="43.5815" lon="1.46478">
        <ele>150</ele>
        <time>2024-11-01T09:50:42Z</time>
      </trkpt>
      <trkpt lat="43.58124" lon="1.46492">
        <ele>150</ele>
        <time>2024-11-01T09:50:42Z</time>
      </trkpt>
      <trkpt lat="43.58099" lon="1.46516">
        <ele>150</ele>
        <time>2024-11-01T09:50:42Z</time>
      </trkpt>
      <trkpt lat="43.5808" lon="1.46542">
        <ele>150</ele>
        <time>2024-11-01T09:50:42Z</time>
      </trkpt>
      <trkpt lat="43.58031" lon="1.46623">
        <ele>150</ele>
        <time>2024-11-01T09:50:42Z</time>
      </trkpt>
      <trkpt lat="43.58001" lon="1.46679">
        <ele>151</ele>
        <time>2024-11-01T09:50:42Z</time>
      </trkpt>
      <trkpt lat="43.57972" lon="1.46718">
        <ele>151</ele>
        <time>2024-11-01T09:50:42Z</time>
      </trkpt>
      <trkpt lat="43.57888" lon="1.4679">
        <ele>150</ele>
        <time>2024-11-01T09:50:42Z</time>
      </trkpt>
      <trkpt lat="43.57773" lon="1.46872">
        <ele>152</ele>
        <time>2024-11-01T09:50:42Z</time>
      </trkpt>
      <trkpt lat="43.57742" lon="1.46902">
        <ele>152</ele>
        <time>2024-11-01T09:50:42Z</time>
      </trkpt>
      <trkpt lat="43.57697" lon="1.46966">
        <ele>151</ele>
        <time>2024-11-01T09:50:42Z</time>
      </trkpt>
      <trkpt lat="43.57524" lon="1.47236">
        <ele>151</ele>
        <time>2024-11-01T09:50:42Z</time>
      </trkpt>
      <trkpt lat="43.57349" lon="1.47458">
        <ele>148</ele>
        <time>2024-11-01T09:50:42Z</time>
      </trkpt>
      <trkpt lat="43.57402" lon="1.47564">
        <ele>151</ele>
        <time>2024-11-01T09:50:42Z</time>
      </trkpt>
      <trkpt lat="43.57014" lon="1.48029">
        <ele>143</ele>
        <time>2024-11-01T09:50:42Z</time>
      </trkpt>
      <trkpt lat="43.56981" lon="1.47998">
        <ele>144</ele>
        <time>2024-11-01T09:50:42Z</time>
      </trkpt>
      <trkpt lat="43.56956" lon="1.47992">
        <ele>144</ele>
        <time>2024-11-01T09:50:42Z</time>
      </trkpt>
      <trkpt lat="43.56817" lon="1.48158">
        <ele>146</ele>
        <time>2024-11-01T09:50:42Z</time>
      </trkpt>
      <trkpt lat="43.5672" lon="1.48282">
        <ele>144</ele>
        <time>2024-11-01T09:50:42Z</time>
      </trkpt>
      <trkpt lat="43.56178" lon="1.48961">
        <ele>145</ele>
        <time>2024-11-01T09:50:42Z</time>
      </trkpt>
      <trkpt lat="43.56163" lon="1.48986">
        <ele>145</ele>
        <time>2024-11-01T09:50:42Z</time>
      </trkpt>
      <trkpt lat="43.56152" lon="1.49019">
        <ele>144</ele>
        <time>2024-11-01T09:50:42Z</time>
      </trkpt>
      <trkpt lat="43.56154" lon="1.49189">
        <ele>142</ele>
        <time>2024-11-01T09:50:42Z</time>
      </trkpt>
      <trkpt lat="43.56195" lon="1.49257">
        <ele>143</ele>
        <time>2024-11-01T09:50:42Z</time>
      </trkpt>
      <trkpt lat="43.56286" lon="1.49252">
        <ele>144</ele>
        <time>2024-11-01T09:50:42Z</time>
      </trkpt>
      <trkpt lat="43.56388" lon="1.49145">
        <ele>146</ele>
        <time>2024-11-01T09:50:42Z</time>
      </trkpt>
      <trkpt lat="43.56412" lon="1.49131">
        <ele>146</ele>
        <time>2024-11-01T09:50:42Z</time>
      </trkpt>
      <trkpt lat="43.56426" lon="1.49102">
        <ele>146</ele>
        <time>2024-11-01T09:50:42Z</time>
      </trkpt>
      <trkpt lat="43.56546" lon="1.48937">
        <ele>144</ele>
        <time>2024-11-01T09:50:42Z</time>
      </trkpt>
      <trkpt lat="43.56588" lon="1.48928">
        <ele>144</ele>
        <time>2024-11-01T09:50:42Z</time>
      </trkpt>
      <trkpt lat="43.56683" lon="1.48973">
        <ele>146</ele>
        <time>2024-11-01T09:50:42Z</time>
      </trkpt>
      <trkpt lat="43.56907" lon="1.49111">
        <ele>147</ele>
        <time>2024-11-01T09:50:42Z</time>
      </trkpt>
      <trkpt lat="43.57261" lon="1.49297">
        <ele>148</ele>
        <time>2024-11-01T09:50:42Z</time>
      </trkpt>
      <trkpt lat="43.57329" lon="1.4934">
        <ele>148</ele>
        <time>2024-11-01T09:50:42Z</time>
      </trkpt>
      <trkpt lat="43.574" lon="1.49449">
        <ele>151</ele>
        <time>2024-11-01T09:50:42Z</time>
      </trkpt>
      <trkpt lat="43.57421" lon="1.49476">
        <ele>150</ele>
        <time>2024-11-01T09:50:42Z</time>
      </trkpt>
      <trkpt lat="43.57442" lon="1.495">
        <ele>150</ele>
        <time>2024-11-01T09:50:42Z</time>
      </trkpt>
      <trkpt lat="43.57461" lon="1.49519">
        <ele>149</ele>
        <time>2024-11-01T09:50:42Z</time>
      </trkpt>
      <trkpt lat="43.57504" lon="1.4955">
        <ele>148</ele>
        <time>2024-11-01T09:50:42Z</time>
      </trkpt>
      <trkpt lat="43.57544" lon="1.4957">
        <ele>150</ele>
        <time>2024-11-01T09:50:42Z</time>
      </trkpt>
      <trkpt lat="43.57667" lon="1.49624">
        <ele>148</ele>
        <time>2024-11-01T09:50:42Z</time>
      </trkpt>
      <trkpt lat="43.57818" lon="1.49669">
        <ele>145</ele>
        <time>2024-11-01T09:50:42Z</time>
      </trkpt>
      <trkpt lat="43.57838" lon="1.49684">
        <ele>145</ele>
        <time>2024-11-01T09:50:42Z</time>
      </trkpt>
      <trkpt lat="43.57862" lon="1.49659">
        <ele>145</ele>
        <time>2024-11-01T09:50:42Z</time>
      </trkpt>
      <trkpt lat="43.57891" lon="1.4963">
        <ele>146</ele>
        <time>2024-11-01T09:50:42Z</time>
      </trkpt>
      <trkpt lat="43.58105" lon="1.49452">
        <ele>148</ele>
        <time>2024-11-01T09:50:42Z</time>
      </trkpt>
      <trkpt lat="43.58136" lon="1.49445">
        <ele>149</ele>
        <time>2024-11-01T09:50:42Z</time>
      </trkpt>
      <trkpt lat="43.58161" lon="1.4942">
        <ele>150</ele>
        <time>2024-11-01T09:50:42Z</time>
      </trkpt>
      <trkpt lat="43.58283" lon="1.49361">
        <ele>148</ele>
        <time>2024-11-01T09:50:42Z</time>
      </trkpt>
      <trkpt lat="43.58389" lon="1.49282">
        <ele>146</ele>
        <time>2024-11-01T09:50:42Z</time>
      </trkpt>
      <trkpt lat="43.58422" lon="1.49286">
        <ele>144</ele>
        <time>2024-11-01T09:50:42Z</time>
      </trkpt>
      <trkpt lat="43.58433" lon="1.49249">
        <ele>145</ele>
        <time>2024-11-01T09:50:42Z</time>
      </trkpt>
      <trkpt lat="43.58479" lon="1.49213">
        <ele>146</ele>
        <time>2024-11-01T09:50:42Z</time>
      </trkpt>
      <trkpt lat="43.58511" lon="1.4921">
        <ele>146</ele>
        <time>2024-11-01T09:50:42Z</time>
      </trkpt>
      <trkpt lat="43.58529" lon="1.49261">
        <ele>144</ele>
        <time>2024-11-01T09:50:42Z</time>
      </trkpt>
      <trkpt lat="43.58515" lon="1.49306">
        <ele>144</ele>
        <time>2024-11-01T09:50:42Z</time>
      </trkpt>
      <trkpt lat="43.58523" lon="1.49346">
        <ele>144</ele>
        <time>2024-11-01T09:50:42Z</time>
      </trkpt>
      <trkpt lat="43.58546" lon="1.4937">
        <ele>143</ele>
        <time>2024-11-01T09:50:42Z</time>
      </trkpt>
      <trkpt lat="43.58584" lon="1.49349">
        <ele>143</ele>
        <time>2024-11-01T09:50:42Z</time>
      </trkpt>
      <trkpt lat="43.5863" lon="1.49363">
        <ele>143</ele>
        <time>2024-11-01T09:50:42Z</time>
      </trkpt>
      <trkpt lat="43.5866" lon="1.4939">
        <ele>143</ele>
        <time>2024-11-01T09:50:42Z</time>
      </trkpt>
      <trkpt lat="43.58678" lon="1.49366">
        <ele>143</ele>
        <time>2024-11-01T09:50:42Z</time>
      </trkpt>
      <trkpt lat="43.58719" lon="1.4936">
        <ele>142</ele>
        <time>2024-11-01T09:50:42Z</time>
      </trkpt>
      <trkpt lat="43.58736" lon="1.49319">
        <ele>142</ele>
        <time>2024-11-01T09:50:42Z</time>
      </trkpt>
      <trkpt lat="43.58757" lon="1.49298">
        <ele>141</ele>
        <time>2024-11-01T09:50:42Z</time>
      </trkpt>
      <trkpt lat="43.58745" lon="1.49222">
        <ele>142</ele>
        <time>2024-11-01T09:50:42Z</time>
      </trkpt>
      <trkpt lat="43.58709" lon="1.49192">
        <ele>143</ele>
        <time>2024-11-01T09:50:42Z</time>
      </trkpt>
      <trkpt lat="43.5875" lon="1.49177">
        <ele>141</ele>
        <time>2024-11-01T09:50:42Z</time>
      </trkpt>
      <trkpt lat="43.58785" lon="1.49402">
        <ele>140</ele>
        <time>2024-11-01T09:50:42Z</time>
      </trkpt>
      <trkpt lat="43.58839" lon="1.49383">
        <ele>140</ele>
        <time>2024-11-01T09:50:42Z</time>
      </trkpt>
      <trkpt lat="43.59205" lon="1.49269">
        <ele>140</ele>
        <time>2024-11-01T09:50:42Z</time>
      </trkpt>
      <trkpt lat="43.59342" lon="1.49222">
        <ele>141</ele>
        <time>2024-11-01T09:50:42Z</time>
      </trkpt>
      <trkpt lat="43.59411" lon="1.49219">
        <ele>143</ele>
        <time>2024-11-01T09:50:42Z</time>
      </trkpt>
      <trkpt lat="43.59792" lon="1.49103">
        <ele>139</ele>
        <time>2024-11-01T09:50:42Z</time>
      </trkpt>
      <trkpt lat="43.59823" lon="1.4909">
        <ele>139</ele>
        <time>2024-11-01T09:50:42Z</time>
      </trkpt>
      <trkpt lat="43.59924" lon="1.4905">
        <ele>139</ele>
        <time>2024-11-01T09:50:42Z</time>
      </trkpt>
      <trkpt lat="43.59973" lon="1.49007">
        <ele>140</ele>
        <time>2024-11-01T09:50:42Z</time>
      </trkpt>
      <trkpt lat="43.59993" lon="1.48983">
        <ele>140</ele>
        <time>2024-11-01T09:50:42Z</time>
      </trkpt>
      <trkpt lat="43.6014" lon="1.48762">
        <ele>138</ele>
        <time>2024-11-01T09:50:42Z</time>
      </trkpt>
      <trkpt lat="43.60197" lon="1.48686">
        <ele>137</ele>
        <time>2024-11-01T09:50:42Z</time>
      </trkpt>
      <trkpt lat="43.60225" lon="1.48655">
        <ele>137</ele>
        <time>2024-11-01T09:50:42Z</time>
      </trkpt>
      <trkpt lat="43.60302" lon="1.48579">
        <ele>140</ele>
        <time>2024-11-01T09:50:42Z</time>
      </trkpt>
      <trkpt lat="43.60401" lon="1.48493">
        <ele>141</ele>
        <time>2024-11-01T09:50:42Z</time>
      </trkpt>
      <trkpt lat="43.60468" lon="1.48448">
        <ele>141</ele>
        <time>2024-11-01T09:50:42Z</time>
      </trkpt>
      <trkpt lat="43.60536" lon="1.48439">
        <ele>140</ele>
        <time>2024-11-01T09:50:42Z</time>
      </trkpt>
      <trkpt lat="43.60583" lon="1.48428">
        <ele>138</ele>
        <time>2024-11-01T09:50:42Z</time>
      </trkpt>
      <trkpt lat="43.60655" lon="1.4839">
        <ele>140</ele>
        <time>2024-11-01T09:50:42Z</time>
      </trkpt>
      <trkpt lat="43.60712" lon="1.48393">
        <ele>139</ele>
        <time>2024-11-01T09:50:42Z</time>
      </trkpt>
      <trkpt lat="43.60775" lon="1.48393">
        <ele>139</ele>
        <time>2024-11-01T09:50:42Z</time>
      </trkpt>
      <trkpt lat="43.60859" lon="1.484">
        <ele>139</ele>
        <time>2024-11-01T09:50:42Z</time>
      </trkpt>
      <trkpt lat="43.60971" lon="1.48412">
        <ele>136</ele>
        <time>2024-11-01T09:50:42Z</time>
      </trkpt>
      <trkpt lat="43.6107" lon="1.4841">
        <ele>140</ele>
        <time>2024-11-01T09:50:42Z</time>
      </trkpt>
      <trkpt lat="43.6113" lon="1.48402">
        <ele>141</ele>
        <time>2024-11-01T09:50:42Z</time>
      </trkpt>
      <trkpt lat="43.61878" lon="1.48175">
        <ele>135</ele>
        <time>2024-11-01T09:50:42Z</time>
      </trkpt>
      <trkpt lat="43.6214" lon="1.48089">
        <ele>137</ele>
        <time>2024-11-01T09:50:42Z</time>
      </trkpt>
      <trkpt lat="43.62216" lon="1.48057">
        <ele>136</ele>
        <time>2024-11-01T09:50:42Z</time>
      </trkpt>
      <trkpt lat="43.62339" lon="1.47981">
        <ele>135</ele>
        <time>2024-11-01T09:50:42Z</time>
      </trkpt>
      <trkpt lat="43.62347" lon="1.47951">
        <ele>135</ele>
        <time>2024-11-01T09:50:42Z</time>
      </trkpt>
      <trkpt lat="43.62452" lon="1.4788">
        <ele>138</ele>
        <time>2024-11-01T09:50:42Z</time>
      </trkpt>
      <trkpt lat="43.62485" lon="1.47908">
        <ele>139</ele>
        <time>2024-11-01T09:50:42Z</time>
      </trkpt>
      <trkpt lat="43.62542" lon="1.47885">
        <ele>139</ele>
        <time>2024-11-01T09:50:42Z</time>
      </trkpt>
      <trkpt lat="43.6257" lon="1.47866">
        <ele>138</ele>
        <time>2024-11-01T09:50:42Z</time>
      </trkpt>
      <trkpt lat="43.62604" lon="1.47832">
        <ele>138</ele>
        <time>2024-11-01T09:50:42Z</time>
      </trkpt>
      <trkpt lat="43.62629" lon="1.47781">
        <ele>138</ele>
        <time>2024-11-01T09:50:42Z</time>
      </trkpt>
      <trkpt lat="43.62665" lon="1.47773">
        <ele>138</ele>
        <time>2024-11-01T09:50:42Z</time>
      </trkpt>
      <trkpt lat="43.62692" lon="1.47748">
        <ele>137</ele>
        <time>2024-11-01T09:50:42Z</time>
      </trkpt>
      <trkpt lat="43.62723" lon="1.47733">
        <ele>137</ele>
        <time>2024-11-01T09:50:42Z</time>
      </trkpt>
      <trkpt lat="43.63267" lon="1.47447">
        <ele>140</ele>
        <time>2024-11-01T09:50:42Z</time>
      </trkpt>
      <trkpt lat="43.63507" lon="1.47318">
        <ele>136</ele>
        <time>2024-11-01T09:50:42Z</time>
      </trkpt>
      <trkpt lat="43.63545" lon="1.47296">
        <ele>138</ele>
        <time>2024-11-01T09:50:42Z</time>
      </trkpt>
      <trkpt lat="43.63539" lon="1.47246">
        <ele>138</ele>
        <time>2024-11-01T09:50:42Z</time>
      </trkpt>
      <trkpt lat="43.63479" lon="1.47161">
        <ele>139</ele>
        <time>2024-11-01T09:50:42Z</time>
      </trkpt>
      <trkpt lat="43.63437" lon="1.47178">
        <ele>140</ele>
        <time>2024-11-01T09:50:42Z</time>
      </trkpt>
      <trkpt lat="43.63415" lon="1.47157">
        <ele>140</ele>
        <time>2024-11-01T09:50:42Z</time>
      </trkpt>
      <trkpt lat="43.6334" lon="1.46958">
        <ele>140</ele>
        <time>2024-11-01T09:50:42Z</time>
      </trkpt>
      <trkpt lat="43.63373" lon="1.4688">
        <ele>140</ele>
        <time>2024-11-01T09:50:42Z</time>
      </trkpt>
      <trkpt lat="43.63407" lon="1.46784">
        <ele>139</ele>
        <time>2024-11-01T09:50:42Z</time>
      </trkpt>
      <trkpt lat="43.63476" lon="1.46611">
        <ele>141</ele>
        <time>2024-11-01T09:50:42Z</time>
      </trkpt>
      <trkpt lat="43.63526" lon="1.46509">
        <ele>141</ele>
        <time>2024-11-01T09:50:42Z</time>
      </trkpt>
      <trkpt lat="43.63554" lon="1.46413">
        <ele>141</ele>
        <time>2024-11-01T09:50:42Z</time>
      </trkpt>
      <trkpt lat="43.6356" lon="1.46378">
        <ele>141</ele>
        <time>2024-11-01T09:50:42Z</time>
      </trkpt>
      <trkpt lat="43.63534" lon="1.46286">
        <ele>140</ele>
        <time>2024-11-01T09:50:42Z</time>
      </trkpt>
      <trkpt lat="43.6352" lon="1.46192">
        <ele>139</ele>
        <time>2024-11-01T09:50:42Z</time>
      </trkpt>
      <trkpt lat="43.63342" lon="1.45784">
        <ele>140</ele>
        <time>2024-11-01T09:50:42Z</time>
      </trkpt>
      <trkpt lat="43.63482" lon="1.45587">
        <ele>137</ele>
        <time>2024-11-01T09:50:42Z</time>
      </trkpt>
      <trkpt lat="43.63497" lon="1.4556">
        <ele>136</ele>
        <time>2024-11-01T09:50:42Z</time>
      </trkpt>
      <trkpt lat="43.63434" lon="1.45438">
        <ele>137</ele>
        <time>2024-11-01T09:50:42Z</time>
      </trkpt>
      <trkpt lat="43.63425" lon="1.45401">
        <ele>137</ele>
        <time>2024-11-01T09:50:42Z</time>
      </trkpt>
      <trkpt lat="43.6343" lon="1.45338">
        <ele>137</ele>
        <time>2024-11-01T09:50:42Z</time>
      </trkpt>
      <trkpt lat="43.63419" lon="1.45291">
        <ele>136</ele>
        <time>2024-11-01T09:50:42Z</time>
      </trkpt>
      <trkpt lat="43.63397" lon="1.45276">
        <ele>136</ele>
        <time>2024-11-01T09:50:42Z</time>
      </trkpt>
      <trkpt lat="43.6336" lon="1.45262">
        <ele>137</ele>
        <time>2024-11-01T09:50:42Z</time>
      </trkpt>
      <trkpt lat="43.63227" lon="1.45136">
        <ele>137</ele>
        <time>2024-11-01T09:50:42Z</time>
      </trkpt>
      <trkpt lat="43.63174" lon="1.45127">
        <ele>136</ele>
        <time>2024-11-01T09:50:42Z</time>
      </trkpt>
      <trkpt lat="43.63113" lon="1.45114">
        <ele>137</ele>
        <time>2024-11-01T09:50:42Z</time>
      </trkpt>
      <trkpt lat="43.63066" lon="1.45094">
        <ele>137</ele>
        <time>2024-11-01T09:50:42Z</time>
      </trkpt>
      <trkpt lat="43.63042" lon="1.45079">
        <ele>137</ele>
        <time>2024-11-01T09:50:42Z</time>
      </trkpt>
      <trkpt lat="43.62994" lon="1.45031">
        <ele>137</ele>
        <time>2024-11-01T09:50:42Z</time>
      </trkpt>
      <trkpt lat="43.62935" lon="1.44962">
        <ele>137</ele>
        <time>2024-11-01T09:50:42Z</time>
      </trkpt>
      <trkpt lat="43.62919" lon="1.44927">
        <ele>138</ele>
        <time>2024-11-01T09:50:42Z</time>
      </trkpt>
      <trkpt lat="43.62884" lon="1.44883">
        <ele>138</ele>
        <time>2024-11-01T09:50:42Z</time>
      </trkpt>
      <trkpt lat="43.62855" lon="1.44841">
        <ele>138</ele>
        <time>2024-11-01T09:50:42Z</time>
      </trkpt>
      <trkpt lat="43.62797" lon="1.44715">
        <ele>138</ele>
        <time>2024-11-01T09:50:42Z</time>
      </trkpt>
      <trkpt lat="43.6274" lon="1.44598">
        <ele>140</ele>
        <time>2024-11-01T09:50:42Z</time>
      </trkpt>
      <trkpt lat="43.62731" lon="1.44558">
        <ele>141</ele>
        <time>2024-11-01T09:50:42Z</time>
      </trkpt>
      <trkpt lat="43.62647" lon="1.4436">
        <ele>139</ele>
        <time>2024-11-01T09:50:42Z</time>
      </trkpt>
      <trkpt lat="43.62629" lon="1.4434">
        <ele>139</ele>
        <time>2024-11-01T09:50:42Z</time>
      </trkpt>
      <trkpt lat="43.62559" lon="1.44313">
        <ele>140</ele>
        <time>2024-11-01T09:50:42Z</time>
      </trkpt>
      <trkpt lat="43.62335" lon="1.44252">
        <ele>142</ele>
        <time>2024-11-01T09:50:42Z</time>
      </trkpt>
      <trkpt lat="43.62232" lon="1.44212">
        <ele>142</ele>
        <time>2024-11-01T09:50:42Z</time>
      </trkpt>
      <trkpt lat="43.62029" lon="1.44129">
        <ele>143</ele>
        <time>2024-11-01T09:50:42Z</time>
      </trkpt>
      <trkpt lat="43.61932" lon="1.44108">
        <ele>143</ele>
        <time>2024-11-01T09:50:42Z</time>
      </trkpt>
      <trkpt lat="43.61752" lon="1.44086">
        <ele>144</ele>
        <time>2024-11-01T09:50:42Z</time>
      </trkpt>
      <trkpt lat="43.61689" lon="1.44076">
        <ele>144</ele>
        <time>2024-11-01T09:50:42Z</time>
      </trkpt>
      <trkpt lat="43.61718" lon="1.43842">
        <ele>143</ele>
        <time>2024-11-01T09:50:42Z</time>
      </trkpt>
      <trkpt lat="43.61732" lon="1.43699">
        <ele>145</ele>
        <time>2024-11-01T09:50:42Z</time>
      </trkpt>
      <trkpt lat="43.61801" lon="1.43672">
        <ele>144</ele>
        <time>2024-11-01T09:50:42Z</time>
      </trkpt>
      <trkpt lat="43.61834" lon="1.43682">
        <ele>144</ele>
        <time>2024-11-01T09:50:42Z</time>
      </trkpt>
      <trkpt lat="43.61957" lon="1.43701">
        <ele>142</ele>
        <time>2024-11-01T09:50:42Z</time>
      </trkpt>
      <trkpt lat="43.62094" lon="1.43703">
        <ele>142</ele>
        <time>2024-11-01T09:50:42Z</time>
      </trkpt>
      <trkpt lat="43.62395" lon="1.43688">
        <ele>140</ele>
        <time>2024-11-01T09:50:42Z</time>
      </trkpt>
      <trkpt lat="43.62452" lon="1.43688">
        <ele>141</ele>
        <time>2024-11-01T09:50:42Z</time>
      </trkpt>
      <trkpt lat="43.62606" lon="1.43706">
        <ele>142</ele>
        <time>2024-11-01T09:50:42Z</time>
      </trkpt>
      <trkpt lat="43.62656" lon="1.43541">
        <ele>141</ele>
        <time>2024-11-01T09:50:42Z</time>
      </trkpt>
      <trkpt lat="43.62698" lon="1.43389">
        <ele>142</ele>
        <time>2024-11-01T09:50:42Z</time>
      </trkpt>
      <trkpt lat="43.62674" lon="1.43324">
        <ele>142</ele>
        <time>2024-11-01T09:50:42Z</time>
      </trkpt>
      <trkpt lat="43.6238" lon="1.42781">
        <ele>136</ele>
        <time>2024-11-01T09:50:42Z</time>
      </trkpt>
      <trkpt lat="43.62321" lon="1.42781">
        <ele>137</ele>
        <time>2024-11-01T09:50:42Z</time>
      </trkpt>
      <trkpt lat="43.62205" lon="1.42779">
        <ele>136</ele>
        <time>2024-11-01T09:50:42Z</time>
      </trkpt>
      <trkpt lat="43.62145" lon="1.42781">
        <ele>137</ele>
        <time>2024-11-01T09:50:42Z</time>
      </trkpt>
      <trkpt lat="43.6212" lon="1.42783">
        <ele>137</ele>
        <time>2024-11-01T09:50:42Z</time>
      </trkpt>
      <trkpt lat="43.62073" lon="1.42826">
        <ele>138</ele>
        <time>2024-11-01T09:50:42Z</time>
      </trkpt>
      <trkpt lat="43.62008" lon="1.42881">
        <ele>139</ele>
        <time>2024-11-01T09:50:42Z</time>
      </trkpt>
      <trkpt lat="43.61947" lon="1.42927">
        <ele>140</ele>
        <time>2024-11-01T09:50:42Z</time>
      </trkpt>
      <trkpt lat="43.61831" lon="1.42992">
        <ele>138</ele>
        <time>2024-11-01T09:50:42Z</time>
      </trkpt>
      <trkpt lat="43.61792" lon="1.4302">
        <ele>137</ele>
        <time>2024-11-01T09:50:42Z</time>
      </trkpt>
      <trkpt lat="43.61704" lon="1.43094">
        <ele>138</ele>
        <time>2024-11-01T09:50:42Z</time>
      </trkpt>
      <trkpt lat="43.61601" lon="1.42847">
        <ele>140</ele>
        <time>2024-11-01T09:50:42Z</time>
      </trkpt>
      <trkpt lat="43.61611" lon="1.42815">
        <ele>139</ele>
        <time>2024-11-01T09:50:42Z</time>
      </trkpt>
      <trkpt lat="43.6169" lon="1.42769">
        <ele>139</ele>
        <time>2024-11-01T09:50:42Z</time>
      </trkpt>
      <trkpt lat="43.61857" lon="1.42684">
        <ele>136</ele>
        <time>2024-11-01T09:50:42Z</time>
      </trkpt>
      <trkpt lat="43.61876" lon="1.4264">
        <ele>136</ele>
        <time>2024-11-01T09:50:42Z</time>
      </trkpt>
      <trkpt lat="43.61983" lon="1.42438">
        <ele>135</ele>
        <time>2024-11-01T09:50:42Z</time>
      </trkpt>
      <trkpt lat="43.61898" lon="1.42385">
        <ele>136</ele>
        <time>2024-11-01T09:50:42Z</time>
      </trkpt>
      <trkpt lat="43.61874" lon="1.42376">
        <ele>136</ele>
        <time>2024-11-01T09:50:42Z</time>
      </trkpt>
      <trkpt lat="43.61696" lon="1.4239">
        <ele>135</ele>
        <time>2024-11-01T09:50:42Z</time>
      </trkpt>
      <trkpt lat="43.61629" lon="1.42404">
        <ele>135</ele>
        <time>2024-11-01T09:50:42Z</time>
      </trkpt>
      <trkpt lat="43.61382" lon="1.42476">
        <ele>139</ele>
        <time>2024-11-01T09:50:42Z</time>
      </trkpt>
      <trkpt lat="43.61239" lon="1.42515">
        <ele>140</ele>
        <time>2024-11-01T09:50:42Z</time>
      </trkpt>
      <trkpt lat="43.61167" lon="1.42142">
        <ele>137</ele>
        <time>2024-11-01T09:50:42Z</time>
      </trkpt>
      <trkpt lat="43.61145" lon="1.42003">
        <ele>138</ele>
        <time>2024-11-01T09:50:42Z</time>
      </trkpt>
      <trkpt lat="43.61063" lon="1.42005">
        <ele>142</ele>
        <time>2024-11-01T09:50:42Z</time>
      </trkpt>
      <trkpt lat="43.6104" lon="1.42021">
        <ele>143</ele>
        <time>2024-11-01T09:50:42Z</time>
      </trkpt>
      <trkpt lat="43.60746" lon="1.42813">
        <ele>143</ele>
        <time>2024-11-01T09:50:42Z</time>
      </trkpt>
      <trkpt lat="43.60196" lon="1.42797">
        <ele>139</ele>
        <time>2024-11-01T09:50:42Z</time>
      </trkpt>
      <trkpt lat="43.59801" lon="1.43076">
        <ele>141</ele>
        <time>2024-11-01T09:50:42Z</time>
      </trkpt>
      <trkpt lat="43.59784" lon="1.43049">
        <ele>141</ele>
        <time>2024-11-01T09:50:42Z</time>
      </trkpt>
      <trkpt lat="43.59645" lon="1.42315">
        <ele>143</ele>
        <time>2024-11-01T09:50:42Z</time>
      </trkpt>
      <trkpt lat="43.59637" lon="1.42275">
        <ele>143</ele>
        <time>2024-11-01T09:50:42Z</time>
      </trkpt>
      <trkpt lat="43.59593" lon="1.4202">
        <ele>152</ele>
        <time>2024-11-01T09:50:42Z</time>
      </trkpt>
      <trkpt lat="43.59584" lon="1.41952">
        <ele>148</ele>
        <time>2024-11-01T09:50:42Z</time>
      </trkpt>
      <trkpt lat="43.59567" lon="1.41885">
        <ele>142</ele>
        <time>2024-11-01T09:50:42Z</time>
      </trkpt>
      <trkpt lat="43.59515" lon="1.41602">
        <ele>146</ele>
        <time>2024-11-01T09:50:42Z</time>
      </trkpt>
      <trkpt lat="43.5951" lon="1.41564">
        <ele>146</ele>
        <time>2024-11-01T09:50:42Z</time>
      </trkpt>
      <trkpt lat="43.59454" lon="1.41265">
        <ele>141</ele>
        <time>2024-11-01T09:50:42Z</time>
      </trkpt>
      <trkpt lat="43.59392" lon="1.40947">
        <ele>141</ele>
        <time>2024-11-01T09:50:42Z</time>
      </trkpt>
      <trkpt lat="43.59363" lon="1.4092">
        <ele>139</ele>
        <time>2024-11-01T09:50:42Z</time>
      </trkpt>
      <trkpt lat="43.59336" lon="1.40923">
        <ele>139</ele>
        <time>2024-11-01T09:50:42Z</time>
      </trkpt>
      <trkpt lat="43.59323" lon="1.40965">
        <ele>140</ele>
        <time>2024-11-01T09:50:42Z</time>
      </trkpt>
      <trkpt lat="43.59306" lon="1.41005">
        <ele>141</ele>
        <time>2024-11-01T09:50:42Z</time>
      </trkpt>
      <trkpt lat="43.59348" lon="1.40889">
        <ele>139</ele>
        <time>2024-11-01T09:50:42Z</time>
      </trkpt>
      <trkpt lat="43.59348" lon="1.40798">
        <ele>138</ele>
        <time>2024-11-01T09:50:42Z</time>
      </trkpt>
      <trkpt lat="43.59101" lon="1.40271">
        <ele>145</ele>
        <time>2024-11-01T09:50:42Z</time>
      </trkpt>
      <trkpt lat="43.59056" lon="1.40183">
        <ele>151</ele>
        <time>2024-11-01T09:50:42Z</time>
      </trkpt>
      <trkpt lat="43.59034" lon="1.40158">
        <ele>152</ele>
        <time>2024-11-01T09:50:42Z</time>
      </trkpt>
      <trkpt lat="43.58872" lon="1.40139">
        <ele>150</ele>
        <time>2024-11-01T09:50:42Z</time>
      </trkpt>
      <trkpt lat="43.58823" lon="1.40153">
        <ele>149</ele>
        <time>2024-11-01T09:50:42Z</time>
      </trkpt>
      <trkpt lat="43.58759" lon="1.40152">
        <ele>148</ele>
        <time>2024-11-01T09:50:42Z</time>
      </trkpt>
      <trkpt lat="43.58722" lon="1.40172">
        <ele>147</ele>
        <time>2024-11-01T09:50:42Z</time>
      </trkpt>
      <trkpt lat="43.58685" lon="1.4022">
        <ele>147</ele>
        <time>2024-11-01T09:50:42Z</time>
      </trkpt>
      <trkpt lat="43.58673" lon="1.40249">
        <ele>146</ele>
        <time>2024-11-01T09:50:42Z</time>
      </trkpt>
      <trkpt lat="43.58628" lon="1.40401">
        <ele>144</ele>
        <time>2024-11-01T09:50:42Z</time>
      </trkpt>
      <trkpt lat="43.5862" lon="1.40488">
        <ele>144</ele>
        <time>2024-11-01T09:50:42Z</time>
      </trkpt>
      <trkpt lat="43.5864" lon="1.40582">
        <ele>144</ele>
        <time>2024-11-01T09:50:42Z</time>
      </trkpt>
      <trkpt lat="43.59118" lon="1.41904">
        <ele>142</ele>
        <time>2024-11-01T09:50:42Z</time>
      </trkpt>
      <trkpt lat="43.58989" lon="1.42113">
        <ele>145</ele>
        <time>2024-11-01T09:50:42Z</time>
      </trkpt>
      <trkpt lat="43.58551" lon="1.42791">
        <ele>146</ele>
        <time>2024-11-01T09:50:42Z</time>
      </trkpt>
      <trkpt lat="43.58535" lon="1.42817">
        <ele>146</ele>
        <time>2024-11-01T09:50:42Z</time>
      </trkpt>
      <trkpt lat="43.5854" lon="1.42861">
        <ele>145</ele>
        <time>2024-11-01T09:50:42Z</time>
      </trkpt>
      <trkpt lat="43.58707" lon="1.43001">
        <ele>146</ele>
        <time>2024-11-01T09:50:42Z</time>
      </trkpt>
      <trkpt lat="43.59232" lon="1.43436">
        <ele>146</ele>
        <time>2024-11-01T09:50:42Z</time>
      </trkpt>
      <trkpt lat="43.5925" lon="1.4346">
        <ele>145</ele>
        <time>2024-11-01T09:50:42Z</time>
      </trkpt>
      <trkpt lat="43.59259" lon="1.43499">
        <ele>144</ele>
        <time>2024-11-01T09:50:42Z</time>
      </trkpt>
      <trkpt lat="43.59211" lon="1.43483">
        <ele>147</ele>
        <time>2024-11-01T09:50:42Z</time>
      </trkpt>
      <trkpt lat="43.58931" lon="1.43247">
        <ele>146</ele>
        <time>2024-11-01T09:50:42Z</time>
      </trkpt>
      <trkpt lat="43.58826" lon="1.43481">
        <ele>143</ele>
        <time>2024-11-01T09:50:42Z</time>
      </trkpt>
      <trkpt lat="43.5879" lon="1.43639">
        <ele>141</ele>
        <time>2024-11-01T09:50:42Z</time>
      </trkpt>
      <trkpt lat="43.58777" lon="1.43669">
        <ele>141</ele>
        <time>2024-11-01T09:50:42Z</time>
      </trkpt>
      <trkpt lat="43.58692" lon="1.43755">
        <ele>141</ele>
        <time>2024-11-01T09:50:42Z</time>
      </trkpt>
      <trkpt lat="43.58666" lon="1.43777">
        <ele>140</ele>
        <time>2024-11-01T09:50:42Z</time>
      </trkpt>
      <trkpt lat="43.58621" lon="1.43799">
        <ele>139</ele>
        <time>2024-11-01T09:50:42Z</time>
      </trkpt>
      <trkpt lat="43.58578" lon="1.43808">
        <ele>137</ele>
        <time>2024-11-01T09:50:42Z</time>
      </trkpt>
      <trkpt lat="43.58492" lon="1.43807">
        <ele>136</ele>
        <time>2024-11-01T09:50:42Z</time>
      </trkpt>
      <trkpt lat="43.58447" lon="1.43798">
        <ele>135</ele>
        <time>2024-11-01T09:50:42Z</time>
      </trkpt>
      <trkpt lat="43.58437" lon="1.43684">
        <ele>140</ele>
        <time>2024-11-01T09:50:42Z</time>
      </trkpt>
      <trkpt lat="43.58415" lon="1.43646">
        <ele>140</ele>
        <time>2024-11-01T09:50:42Z</time>
      </trkpt>
      <trkpt lat="43.58413" lon="1.43589">
        <ele>138</ele>
        <time>2024-11-01T09:50:42Z</time>
      </trkpt>
      <trkpt lat="43.58369" lon="1.43576">
        <ele>138</ele>
        <time>2024-11-01T09:50:42Z</time>
      </trkpt>
      <trkpt lat="43.58331" lon="1.43644">
        <ele>140</ele>
        <time>2024-11-01T09:50:42Z</time>
      </trkpt>
      <trkpt lat="43.58216" lon="1.43603">
        <ele>141</ele>
        <time>2024-11-01T09:50:42Z</time>
      </trkpt>
      <trkpt lat="43.58184" lon="1.43598">
        <ele>142</ele>
        <time>2024-11-01T09:50:42Z</time>
      </trkpt>
      <trkpt lat="43.58127" lon="1.43587">
        <ele>143</ele>
        <time>2024-11-01T09:50:42Z</time>
      </trkpt>
      <trkpt lat="43.58028" lon="1.43539">
        <ele>146</ele>
        <time>2024-11-01T09:50:42Z</time>
      </trkpt>
      <trkpt lat="43.57996" lon="1.43518">
        <ele>149</ele>
        <time>2024-11-01T09:50:42Z</time>
      </trkpt>
      <trkpt lat="43.58001" lon="1.43481">
        <ele>150</ele>
        <time>2024-11-01T09:50:42Z</time>
      </trkpt>
      <trkpt lat="43.58014" lon="1.43444">
        <ele>148</ele>
        <time>2024-11-01T09:50:42Z</time>
      </trkpt>
      <trkpt lat="43.58047" lon="1.43394">
        <ele>145</ele>
        <time>2024-11-01T09:50:42Z</time>
      </trkpt>
      <trkpt lat="43.58075" lon="1.43337">
        <ele>142</ele>
        <time>2024-11-01T09:50:42Z</time>
      </trkpt>
      <trkpt lat="43.58048" lon="1.43317">
        <ele>143</ele>
        <time>2024-11-01T09:50:42Z</time>
      </trkpt>
      <trkpt lat="43.57914" lon="1.43688">
        <ele>139</ele>
        <time>2024-11-01T09:50:42Z</time>
      </trkpt>
      <trkpt lat="43.57989" lon="1.43741">
        <ele>140</ele>
        <time>2024-11-01T09:50:42Z</time>
      </trkpt>
      <trkpt lat="43.58138" lon="1.43852">
        <ele>142</ele>
        <time>2024-11-01T09:50:42Z</time>
      </trkpt>
      <trkpt lat="43.58202" lon="1.43892">
        <ele>144</ele>
        <time>2024-11-01T09:50:42Z</time>
      </trkpt>
      <trkpt lat="43.58277" lon="1.43934">
        <ele>147</ele>
        <time>2024-11-01T09:50:42Z</time>
      </trkpt>
      <trkpt lat="43.58386" lon="1.43966">
        <ele>146</ele>
        <time>2024-11-01T09:50:42Z</time>
      </trkpt>
      <trkpt lat="43.58395" lon="1.44399">
        <ele>148</ele>
        <time>2024-11-01T09:50:42Z</time>
      </trkpt>
      <trkpt lat="43.58397" lon="1.4443">
        <ele>149</ele>
        <time>2024-11-01T09:50:42Z</time>
      </trkpt>
      <trkpt lat="43.58434" lon="1.4477">
        <ele>150</ele>
        <time>2024-11-01T09:50:42Z</time>
      </trkpt>
      <trkpt lat="43.58425" lon="1.44833">
        <ele>150</ele>
        <time>2024-11-01T09:50:42Z</time>
      </trkpt>
      <trkpt lat="43.58373" lon="1.45054">
        <ele>149</ele>
        <time>2024-11-01T09:50:42Z</time>
      </trkpt>
      <trkpt lat="43.58377" lon="1.45087">
        <ele>149</ele>
        <time>2024-11-01T09:50:42Z</time>
      </trkpt>
      <trkpt lat="43.58412" lon="1.45189">
        <ele>148</ele>
        <time>2024-11-01T09:50:42Z</time>
      </trkpt>
      <trkpt lat="43.58519" lon="1.45131">
        <ele>149</ele>
        <time>2024-11-01T09:50:42Z</time>
      </trkpt>
      <trkpt lat="43.58631" lon="1.4537">
        <ele>147</ele>
        <time>2024-11-01T09:50:42Z</time>
      </trkpt>
      <trkpt lat="43.58576" lon="1.45398">
        <ele>147</ele>
        <time>2024-11-01T09:50:42Z</time>
      </trkpt>
      <trkpt lat="43.58521" lon="1.45453">
        <ele>148</ele>
        <time>2024-11-01T09:50:42Z</time>
      </trkpt>
      <trkpt lat="43.5873" lon="1.45946">
        <ele>151</ele>
        <time>2024-11-01T09:50:42Z</time>
      </trkpt>
      <trkpt lat="43.58746" lon="1.45981">
        <ele>152</ele>
        <time>2024-11-01T09:50:42Z</time>
      </trkpt>
      <trkpt lat="43.58769" lon="1.46012">
        <ele>152</ele>
        <time>2024-11-01T09:50:42Z</time>
      </trkpt>
      <trkpt lat="43.59057" lon="1.45361">
        <ele>149</ele>
        <time>2024-11-01T09:50:42Z</time>
      </trkpt>
      <trkpt lat="43.59302" lon="1.45326">
        <ele>149</ele>
        <time>2024-11-01T09:50:42Z</time>
      </trkpt>
      <trkpt lat="43.59471" lon="1.45306">
        <ele>150</ele>
        <time>2024-11-01T09:50:42Z</time>
      </trkpt>
      <trkpt lat="43.59513" lon="1.45372">
        <ele>152</ele>
        <time>2024-11-01T09:50:42Z</time>
      </trkpt>
      <trkpt lat="43.59541" lon="1.45393">
        <ele>154</ele>
        <time>2024-11-01T09:50:42Z</time>
      </trkpt>
      <trkpt lat="43.59573" lon="1.45397">
        <ele>156</ele>
        <time>2024-11-01T09:50:42Z</time>
      </trkpt>
      <trkpt lat="43.59597" lon="1.45389">
        <ele>155</ele>
        <time>2024-11-01T09:50:42Z</time>
      </trkpt>
      <trkpt lat="43.5962" lon="1.45372">
        <ele>153</ele>
        <time>2024-11-01T09:50:42Z</time>
      </trkpt>
      <trkpt lat="43.59642" lon="1.45338">
        <ele>151</ele>
        <time>2024-11-01T09:50:42Z</time>
      </trkpt>
      <trkpt lat="43.59658" lon="1.45301">
        <ele>151</ele>
        <time>2024-11-01T09:50:42Z</time>
      </trkpt>
      <trkpt lat="43.59667" lon="1.45247">
        <ele>152</ele>
        <time>2024-11-01T09:50:42Z</time>
      </trkpt>
      <trkpt lat="43.59665" lon="1.45213">
        <ele>152</ele>
        <time>2024-11-01T09:50:42Z</time>
      </trkpt>
      <trkpt lat="43.59657" lon="1.45179">
        <ele>152</ele>
        <time>2024-11-01T09:50:42Z</time>
      </trkpt>
      <trkpt lat="43.59639" lon="1.45145">
        <ele>152</ele>
        <time>2024-11-01T09:50:42Z</time>
      </trkpt>
      <trkpt lat="43.59611" lon="1.45124">
        <ele>152</ele>
        <time>2024-11-01T09:50:42Z</time>
      </trkpt>
      <trkpt lat="43.59555" lon="1.45123">
        <ele>151</ele>
        <time>2024-11-01T09:50:42Z</time>
      </trkpt>
      <trkpt lat="43.59314" lon="1.44462">
        <ele>148</ele>
        <time>2024-11-01T09:50:42Z</time>
      </trkpt>
      <trkpt lat="43.59417" lon="1.44405">
        <ele>152</ele>
        <time>2024-11-01T09:50:42Z</time>
      </trkpt>
      <trkpt lat="43.59526" lon="1.44517">
        <ele>154</ele>
        <time>2024-11-01T09:50:42Z</time>
      </trkpt>
      <trkpt lat="43.59556" lon="1.44537">
        <ele>154</ele>
        <time>2024-11-01T09:50:42Z</time>
      </trkpt>
      <trkpt lat="43.59591" lon="1.44547">
        <ele>155</ele>
        <time>2024-11-01T09:50:42Z</time>
      </trkpt>
      <trkpt lat="43.60298" lon="1.44566">
        <ele>159</ele>
        <time>2024-11-01T09:50:42Z</time>
      </trkpt>
    </trkseg>
  </trk>
</gpx>